Flag for Germany Weather past 2 weeks in Hameln, Lower Saxony, Germany

Now
75 °F

Partly sunny.


Feels Like: 77 °F
Forecast: 56 / 70 °F
Wind: 7 mph from North

Location: Bueckeburg

Current Time: Aug 31, 2015 at 11:16:23 AM

Latest Report: Aug 31, 2015 at 10:20 AM


Visibility: N/A

Pressure: 29.92 "Hg

Humidity: 74%

Dew point: 66 °F

Location of HamelnLocation

Historic Weather in Hameln — Graph

°F

Hameln temperature yesterday

Maximum temperature yesterday: 81 °F (at 6:20 PM)
Minimum temperature yesterday: 59 °F (at 3:20 AM)
Average temperature yesterday: 67 °F

Past Weeks' High & Low Weather Summary

 TemperatureHumidityPressure
High81 °F (Aug 30, 6:20 PM)100% (Aug 16, 9:20 PM)30.27 "Hg (Aug 16, 9:20 PM)
Low52 °F (Aug 29, 6:20 AM)32% (Aug 22, 12:20 PM)29.56 "Hg (Aug 24, 6:20 PM)
Average65 °F75%29.97 "Hg
* Reported Aug 16 9:20 AM — Aug 31 9:20 AM, Hameln, Weather by CustomWeather, © 2015

Note: Actual official high and low records may vary slightly from our data, if they occured in-between our weather recording intervals... More about our weather records

Advertising

Hameln weather history for previous 24 hours

 ConditionsComfort  
Time TempWeatherWind HumidityBarometerVisibility
9:20 AM
Mon, Aug 31
73 °FPartly sunny.3 mph78%29.92 "HgN/A
8:20 AM70 °FPartly sunny.5 mph88%29.92 "HgN/A
7:20 AM66 °FPassing clouds.6 mph100%29.95 "HgN/A
6:20 AM66 °FPassing clouds.7 mph100%29.95 "HgN/A
5:20 AM68 °FPassing clouds.3 mph94%29.95 "HgN/A
4:20 AM68 °FFog.3 mph100%29.98 "Hg1 mi
3:49 AM68 °FFog.3 mph100%29.98 "Hg1 mi
3:20 AM70 °FFog.10 mph100%30.01 "Hg0 mi
2:20 AM70 °FFog.3 mph100%29.98 "Hg0 mi
1:20 AM72 °FFog.1 mph100%29.98 "Hg0 mi
12:48 AM72 °FFog.2 mph100%29.98 "Hg0 mi
12:20 AM72 °FFog.2 mph100%29.98 "Hg3 mi
11:20 PM
Sun, Aug 30
72 °FPassing clouds.2 mph100%29.98 "HgN/A
10:20 PM73 °FPassing clouds.2 mph94%30.01 "HgN/A
9:20 PM75 °FPassing clouds.3 mph89%30.01 "HgN/A
8:20 PM77 °FPartly sunny.6 mph89%29.98 "HgN/A
7:20 PM81 °FPartly sunny.5 mph79%29.98 "HgN/A
6:20 PM81 °FPartly sunny.N/A70%29.98 "HgN/A
Weather by CustomWeather, © 2015

See weather overviewHow to use our weather pages